#timestamp,LO_Frequency,Hit,StdDev 
1657922415.1,286047001.5,N
1657922435.8,286047003.9,N
1657922455.7,286047004.0,N
1657922475.5,286047000.4,N
1657922495.4,286047000.9,N
1657922515.2,286046999.9,N
1657922535.0,286047001.0,N
1657922535.9,286047001.0,N
1657922555.8,286047001.2,N
1657922575.6,286047000.8,N
1657922595.4,286046998.4,N
1657922615.3,286046998.4,N
1657922635.1,286047000.9,N
1657922655.9,286047000.9,N
1657922675.7,286047000.5,N
1657922695.5,286046998.5,N
1657922715.4,286047002.3,N
1657922735.2,286046998.1,N
1657922755.0,286047000.9,N
1657922755.9,286047000.9,N
1657922775.8,286047000.7,N
1657922795.6,286046998.5,N
1657922815.5,286047000.8,N
1657922835.3,286047000.5,N
1657922855.1,286047000.3,N
1657922875.9,286046998.3,N
1657922895.7,286047000.6,N
1657922915.6,286046999.7,N
1657922935.4,286047002.8,N
1657922955.2,286047000.2,N
1657922975.1,286047002.7,N
1657922976.0,286047002.7,N
1657922995.8,286047002.1,N
1657923015.6,286047002.5,N
1657923035.5,286047004.4,Y
1657923055.3,286047003.6,P
1657923075.2,286047003.1,N
1657923095.0,286047002.9,N
1657923095.9,286047002.9,N
1657923115.7,286047004.0,Y
1657923135.6,286047002.0,P
1657923155.4,286047002.4,P
1657923175.3,286047002.0,P
1657923195.1,286046999.8,N
1657923196.0,286046999.8,N
1657923215.8,286047000.5,N
1657923235.7,286047000.3,N
1657923255.5,286046996.5,Y
1657923275.3,286046997.8,P
1657923295.2,286046996.0,N
1657923315.0,286046995.8,N
1657923315.9,286046995.8,N
1657923335.8,286046994.8,N
1657923355.6,286046992.5,Y
1657923375.4,286046996.2,P
1657923395.3,286046997.6,P
1657923415.1,286046996.1,P
1657923435.9,286046996.1,Y
1657923455.7,286046999.3,P
1657923475.5,286046998.7,N
1657923495.4,286047000.6,N
1657923515.2,286047001.0,N
1657923535.0,286047000.6,N
1657923535.9,286047000.6,N
1657923555.8,286047000.7,N
1657923575.6,286047000.6,N
1657923595.5,286046999.8,N
1657923615.3,286047001.5,N
1657923635.1,286047001.6,N
1657923655.9,286047002.7,N
1657923675.7,286047002.6,N
1657923695.5,286047001.3,N
1657923715.4,286047002.4,N
1657923735.2,286047002.4,N
1657923755.1,286047002.2,N
1657923756.0,286047002.2,N
1657923775.8,286047002.3,N
1657923795.6,286047002.6,N
1657923815.5,286047000.0,N
1657923835.3,286047000.9,N
1657923855.1,286047001.2,N
1657923875.9,286047001.2,N
1657923895.7,286047002.4,N
1657923915.6,286047001.7,N
1657923935.4,286047003.8,N
1657923955.2,286047002.1,N
1657923975.1,286047003.9,N
1657923976.0,286047003.9,N
1657923995.8,286047004.1,Y
1657924015.6,286047002.4,P
1657924035.5,286047002.0,P
1657924055.3,286047001.6,P
1657924075.2,286047004.3,Y
1657924095.9,286047001.8,P
1657924115.7,286047004.3,P
1657924135.6,286047000.0,N
1657924155.4,286046998.5,N
1657924175.2,286046998.3,N
1657924195.1,286047000.8,N
1657924196.0,286047000.8,N
1657924215.8,286046998.2,N
1657924235.7,286046998.8,N
1657924255.5,286046999.4,N
1657924275.3,286046999.0,N
1657924295.2,286046998.9,N
1657924315.0,286046998.5,N
1657924315.9,286046998.5,N
1657924335.7,286046999.3,N
1657924355.6,286046999.1,N
1657924375.4,286046996.7,N
1657924395.3,286046997.7,N
1657924415.1,286046996.6,N
1657924416.0,286046996.6,N
1657924435.8,286046999.4,N
1657924455.7,286046998.6,N
1657924475.5,286046996.8,N
1657924495.3,286046999.3,N
1657924515.2,286046998.2,N
1657924535.0,286047001.1,N
1657924535.9,286047001.1,N
1657924555.8,286047000.9,N
1657924575.6,286047000.4,N
1657924595.4,286047002.8,N
1657924615.3,286047000.1,N
1657924635.1,286046998.5,N
1657924655.8,286046998.7,N
1657924675.7,286046998.9,N
1657924695.5,286046998.7,N
1657924715.4,286046998.1,N
1657924735.2,286047000.6,N
1657924755.0,286046998.2,N
1657924755.9,286046998.2,N
1657924775.8,286046998.3,N
1657924795.6,286046999.1,N
1657924815.4,286046997.0,N
1657924835.3,286046997.7,N
1657924855.1,286046999.6,N
1657924875.9,286046996.6,N
1657924895.7,286046998.6,N
1657924915.5,286046998.4,N
1657924935.4,286047000.6,N
1657924955.2,286046998.7,N
1657924975.0,286046998.3,N
1657924975.9,286046998.3,N
1657924995.8,286046999.4,N
1657925015.6,286046997.8,N
1657925035.5,286046995.2,Y
1657925055.3,286046999.1,P
1657925075.1,286046996.7,P
1657925095.9,286046997.5,N
1657925115.7,286046996.9,Y
1657925135.5,286047000.4,P
1657925155.4,286047002.2,N
1657925175.2,286047003.2,N
1657925195.1,286047005.9,Y
1657925196.0,286047005.9,P
1657925215.8,286047005.6,N
1657925265.7,286047002.3,E
1657925275.6,286047000.9,N
1657925295.4,286046999.9,P
1657925315.2,286047002.3,P
1657925335.1,286047002.4,N
1657925336.0,286047002.4,N
1657925355.8,286047000.4,N
1657925375.7,286047002.3,N
1657925395.5,286047000.1,N
1657925415.3,286047000.0,N
1657925435.2,286047002.4,N
1657925455.0,286047002.2,N
1657925455.9,286047002.2,N
1657925475.7,286047001.6,N
1657925495.6,286047002.4,N
1657925515.4,286047002.3,N
1657925535.3,286046999.7,N
1657925555.1,286047000.0,N
1657925556.0,286047000.0,N
1657925575.8,286047000.0,N
1657925595.7,286047002.2,N
1657925615.5,286047002.6,N
1657925635.3,286047001.4,N
1657925655.2,286047002.8,N
1657925675.0,286046999.0,N
1657925675.9,286046999.0,N
1657925695.8,286046997.3,N
1657925715.6,286046997.9,N
1657925735.4,286046998.6,N
1657925755.3,286046997.0,N
1657925775.1,286046997.6,N
1657925795.8,286046999.6,N
1657925815.7,286046998.6,N
1657925835.5,286046998.4,N
1657925855.4,286046998.1,N
1657925875.2,286046998.5,N
1657925895.0,286047000.0,N
1657925895.9,286047000.0,N
1657925915.8,286047000.9,N
1657925935.6,286047000.0,N
1657925955.4,286047002.8,N
1657925975.3,286047000.7,N
1657925995.1,286047000.5,N
